Flag for Turkey Weather past 2 weeks in Mersin, Turkey

Now
77 °F

Clear.


Feels Like: 78 °F
Forecast: 64 / 92 °F
Wind: 6 mph from Northeast

Location: Adana / Sakirpasa

Current Time: Sep 4, 2015 at 5:24:01 AM

Latest Report: Sep 4, 2015 at 4:50 AM


Visibility: 10 mi

Pressure: 29.80 "Hg

Humidity: 83%

Dew point: 72 °F

Location of MersinLocation

Historic Weather in Mersin — Graph

°F

Mersin temperature yesterday

Maximum temperature yesterday: 93 °F (at 1:20 PM)
Minimum temperature yesterday: 75 °F (at 2:50 AM)
Average temperature yesterday: 83 °F

Past Weeks' High & Low Weather Summary

 TemperatureHumidityPressure
High97 °F (Aug 28, 2:20 PM)94% (Aug 21, 5:50 AM)29.86 "Hg (Aug 21, 5:50 AM)
Low66 °F (Aug 30, 6:20 AM)14% (Aug 26, 11:20 AM)29.62 "Hg (Aug 23, 3:50 PM)
Average84 °F58%29.76 "Hg
* Reported Aug 20 3:20 AM — Sep 4 3:50 AM, Mersin, Weather by CustomWeather, © 2015

Note: Actual official high and low records may vary slightly from our data, if they occured in-between our weather recording intervals... More about our weather records

Advertising

Mersin weather history for previous 24 hours

 ConditionsComfort  
Time TempWeatherWind HumidityBarometerVisibility
3:50 AM
Fri, Sep 4
79 °FClear.5 mph84%29.80 "Hg10 mi
3:20 AM79 °FPassing clouds.6 mph84%29.77 "HgN/A
2:50 AM77 °FPassing clouds.5 mph89%29.80 "HgN/A
2:20 AM77 °FPassing clouds.2 mph83%29.80 "HgN/A
1:50 AM77 °FPassing clouds.1 mph89%29.80 "HgN/A
1:20 AM77 °FClear.No wind83%29.80 "Hg10 mi
12:50 AM77 °FClear.No wind83%29.80 "Hg10 mi
12:20 AM77 °FClear.No wind83%29.80 "Hg10 mi
11:50 PM
Thu, Sep 3
77 °FClear.No wind83%29.80 "Hg10 mi
11:20 PM79 °FClear.5 mph84%29.80 "Hg10 mi
10:50 PM79 °FClear.2 mph79%29.80 "Hg10 mi
10:20 PM79 °FClear.2 mph84%29.80 "Hg10 mi
9:50 PM79 °FClear.No wind84%29.77 "Hg10 mi
9:20 PM79 °FClear.No wind79%29.80 "Hg10 mi
8:50 PM81 °FClear.5 mph74%29.77 "Hg10 mi
8:20 PM81 °FClear.3 mph74%29.77 "Hg10 mi
7:50 PM81 °FSunny.5 mph74%29.77 "Hg10 mi
7:20 PM82 °FSunny.6 mph70%29.77 "Hg10 mi
6:50 PM86 °FSunny.6 mph62%29.74 "Hg10 mi
6:20 PM86 °FSunny.8 mph62%29.74 "Hg10 mi
5:50 PM88 °FPassing clouds.8 mph55%29.74 "HgN/A
5:20 PM90 °FPassing clouds.9 mph52%29.74 "HgN/A
4:50 PM90 °FPassing clouds.9 mph49%29.77 "HgN/A
4:20 PM91 °FPassing clouds.9 mph46%29.77 "HgN/A
3:50 PM91 °FPassing clouds.9 mph46%29.77 "HgN/A
3:20 PM91 °FPassing clouds.9 mph46%29.77 "HgN/A
2:50 PM91 °FPassing clouds.10 mph46%29.77 "HgN/A
2:20 PM91 °FPassing clouds.9 mph49%29.77 "HgN/A
1:50 PM93 °FPassing clouds.9 mph44%29.77 "HgN/A
1:20 PM93 °FPassing clouds.8 mph44%29.80 "HgN/A
12:50 PM91 °FPassing clouds.6 mph46%29.80 "HgN/A
12:20 PM91 °FPassing clouds.5 mph44%29.80 "HgN/A
11:50 AM91 °FPassing clouds.5 mph46%29.80 "HgN/A
11:20 AM88 °FPassing clouds.6 mph52%29.80 "HgN/A
10:50 AM88 °FPassing clouds.7 mph52%29.83 "HgN/A
10:20 AM88 °FPassing clouds.5 mph59%29.83 "HgN/A
9:50 AM86 °FPassing clouds.3 mph62%29.83 "HgN/A
9:20 AM84 °FPassing clouds.3 mph66%29.83 "HgN/A
8:50 AM82 °FPassing clouds.3 mph74%29.83 "HgN/A
8:20 AM82 °FPassing clouds.5 mph74%29.83 "HgN/A
7:50 AM81 °FPassing clouds.6 mph79%29.83 "HgN/A
7:20 AM79 °FPassing clouds.6 mph84%29.83 "HgN/A
6:50 AM77 °FPassing clouds.5 mph89%29.83 "HgN/A
6:20 AM75 °FPassing clouds.6 mph89%29.80 "HgN/A
5:50 AM75 °FPassing clouds.5 mph89%29.80 "HgN/A
5:20 AM77 °FPassing clouds.2 mph83%29.83 "HgN/A
Weather by CustomWeather, © 2015

See weather overviewHow to use our weather pages